• In Hungary
  • List of Countries
  • For 7 days
  • Water Temperature
  • Satellite Maps
  • Weather Map
  • News
  • Weather Widgets
  • user-avatar
    Login

    Hourly Weather Kavadarci

    Today, 26 September, Wednesday

    Time Temperature Precipitation Wind Pressure Humidity
    00:00 +7°C° 0 mm 3 mps 751 mmHg 60%
    01:00 +5°C° 0 mm 3 mps 751 mmHg 64%
    02:00 +5°C° 0 mm 3 mps 751 mmHg 65%
    03:00 +5°C° 0 mm 2 mps 751 mmHg 67%
    04:00 +5°C° 0 mm 2 mps 751 mmHg 69%
    05:00 +6°C° 0 mm 2 mps 752 mmHg 63%
    06:00 +7°C° 0 mm 2 mps 752 mmHg 58%
    07:00 +9°C° 0 mm 3 mps 752 mmHg 53%
    08:00 +11°C° 0 mm 3 mps 752 mmHg 46%
    09:00 +13°C° 0 mm 3 mps 752 mmHg 39%
    10:00 +16°C° 0 mm 3 mps 751 mmHg 31%
    11:00 +17°C° 0 mm 4 mps 751 mmHg 28%
    12:00 +18°C° 0 mm 4 mps 750 mmHg 25%
    13:00 +19°C° 0 mm 4 mps 750 mmHg 22%
    14:00 +19°C° 0 mm 4 mps 750 mmHg 22%
    15:00 +19°C° 0 mm 5 mps 750 mmHg 22%
    16:00 +17°C° 0 mm 5 mps 749 mmHg 21%
    17:00 +15°C° 0 mm 4 mps 750 mmHg 27%
    18:00 +13°C° 0 mm 3 mps 750 mmHg 32%
    19:00 +11°C° 0 mm 3 mps 751 mmHg 38%
    20:00 +9°C° 0 mm 3 mps 752 mmHg 42%
    21:00 +8°C° 0 mm 3 mps 752 mmHg 47%
    22:00 +7°C° 0 mm 2 mps 752 mmHg 51%
    23:00 +7°C° 0 mm 2 mps 752 mmHg 54%

    Tomorrow, 27 September, Thursday

    Time Temperature Precipitation Wind Pressure Humidity
    00:00 +6°C° 0 mm 2 mps 752 mmHg 57%
    01:00 +5°C° 0 mm 2 mps 752 mmHg 60%
    02:00 +5°C° 0 mm 2 mps 752 mmHg 61%
    03:00 +5°C° 0 mm 2 mps 751 mmHg 62%
    04:00 +4°C° 0 mm 2 mps 751 mmHg 64%
    05:00 +6°C° 0 mm 2 mps 751 mmHg 58%
    06:00 +7°C° 0 mm 2 mps 751 mmHg 52%
    07:00 +8°C° 0 mm 3 mps 751 mmHg 46%
    08:00 +11°C° 0 mm 3 mps 751 mmHg 38%
    09:00 +13°C° 0 mm 3 mps 750 mmHg 30%
    10:00 +17°C° 0 mm 4 mps 750 mmHg 23%
    11:00 +18°C° 0 mm 4 mps 749 mmHg 20%
    12:00 +20°C° 0 mm 3 mps 748 mmHg 17%
    13:00 +21°C° 0 mm 3 mps 748 mmHg 14%
    14:00 +21°C° 0 mm 3 mps 747 mmHg 14%
    15:00 +21°C° 0 mm 3 mps 747 mmHg 14%
    16:00 +21°C° 0 mm 3 mps 747 mmHg 14%
    17:00 +18°C° 0 mm 3 mps 747 mmHg 19%
    18:00 +15°C° 0 mm 2 mps 747 mmHg 23%
    19:00 +13°C° 0 mm 2 mps 747 mmHg 28%
    20:00 +12°C° 0 mm 2 mps 747 mmHg 31%
    21:00 +10°C° 0 mm 2 mps 748 mmHg 34%
    22:00 +9°C° 0 mm 2 mps 748 mmHg 37%
    23:00 +8°C° 0 mm 2 mps 747 mmHg 39%

    Day after tomorrow, 28 September, Friday

    Time Temperature Precipitation Wind Pressure Humidity
    00:00 +8°C° 0 mm 2 mps 747 mmHg 40%
    01:00 +8°C° 0 mm 2 mps 747 mmHg 42%
    02:00 +8°C° 0 mm 2 mps 747 mmHg 42%
    03:00 +7°C° 0 mm 2 mps 746 mmHg 43%
    04:00 +7°C° 0 mm 2 mps 746 mmHg 43%
    05:00 +10°C° 0 mm 1 mps 746 mmHg 39%
    06:00 +11°C° 0 mm 1 mps 745 mmHg 36%
    07:00 +12°C° 0 mm 1 mps 745 mmHg 32%
    08:00 +15°C° 0 mm 1 mps 744 mmHg 27%
    09:00 +19°C° 0 mm 1 mps 744 mmHg 22%
    10:00 +22°C° 0 mm 1 mps 743 mmHg 17%
    11:00 +23°C° 0 mm 2 mps 743 mmHg 16%
    12:00 +24°C° 0 mm 2 mps 742 mmHg 16%
    13:00 +25°C° 0 mm 2 mps 741 mmHg 16%
    14:00 +25°C° 0 mm 2 mps 741 mmHg 17%
    15:00 +25°C° 0 mm 2 mps 741 mmHg 18%
    16:00 +24°C° 0 mm 2 mps 740 mmHg 19%
    17:00 +21°C° 0 mm 2 mps 740 mmHg 24%
    18:00 +19°C° 0 mm 1 mps 741 mmHg 28%
    19:00 +16°C° 0 mm 1 mps 741 mmHg 32%
    20:00 +15°C° 0 mm 1 mps 741 mmHg 34%
    21:00 +15°C° 0 mm 1 mps 741 mmHg 35%
    22:00 +14°C° 0 mm 1 mps 741 mmHg 37%
    23:00 +14°C° 0 mm 1 mps 740 mmHg 38%

    29 September, Saturday

    Time Temperature Precipitation Wind Pressure Humidity
    00:00 +14°C° 0 mm 1 mps 740 mmHg 39%
    01:00 +14°C° 0 mm 1 mps 740 mmHg 41%
    02:00 +14°C° 0 mm 1 mps 740 mmHg 41%
    03:00 +13°C° 0 mm 1 mps 739 mmHg 42%
    04:00 +13°C° 0 mm 1 mps 739 mmHg 43%
    05:00 +15°C° 0 mm 1 mps 739 mmHg 40%
    06:00 +16°C° 0 mm 1 mps 739 mmHg 37%
    07:00 +18°C° 0 mm 1 mps 739 mmHg 34%
    08:00 +20°C° 0 mm 1 mps 739 mmHg 31%
    09:00 +21°C° 0 mm 2 mps 739 mmHg 27%
    10:00 +24°C° 0 mm 2 mps 739 mmHg 24%
    11:00 +25°C° 0 mm 2 mps 738 mmHg 23%
    12:00 +26°C° 0 mm 2 mps 738 mmHg 22%
    13:00 +27°C° 0 mm 2 mps 738 mmHg 22%
    14:00 +27°C° 0 mm 2 mps 738 mmHg 22%
    15:00 +27°C° 0 mm 2 mps 738 mmHg 22%
    16:00 +27°C° 0 mm 2 mps 738 mmHg 23%
    17:00 +24°C° 0 mm 2 mps 738 mmHg 28%
    18:00 +20°C° 0 mm 2 mps 738 mmHg 34%
    19:00 +18°C° 0 mm 2 mps 739 mmHg 39%
    20:00 +17°C° 0 mm 2 mps 739 mmHg 41%
    21:00 +16°C° 0 mm 2 mps 739 mmHg 44%
    22:00 +16°C° 0 mm 2 mps 739 mmHg 46%
    23:00 +15°C° 0 mm 2 mps 739 mmHg 46%

    30 September, Sunday

    Time Temperature Precipitation Wind Pressure Humidity
    00:00 +15°C° 0 mm 2 mps 739 mmHg 46%
    01:00 +14°C° 0 mm 2 mps 740 mmHg 46%
    02:00 +14°C° 0.1 mm 2 mps 740 mmHg 47%
    03:00 +14°C° 0.1 mm 2 mps 740 mmHg 49%
    04:00 +14°C° 0.1 mm 2 mps 740 mmHg 50%
    05:00 +14°C° 0.3 mm 2 mps 740 mmHg 51%
    06:00 +14°C° 0.3 mm 2 mps 740 mmHg 53%
    07:00 +14°C° 0.3 mm 3 mps 741 mmHg 55%
    08:00 +16°C° 0.8 mm 3 mps 741 mmHg 56%
    09:00 +16°C° 0.8 mm 3 mps 741 mmHg 57%
    10:00 +17°C° 0.8 mm 3 mps 741 mmHg 58%
    11:00 +17°C° 1.6 mm 2 mps 741 mmHg 63%
    12:00 +16°C° 1.6 mm 2 mps 740 mmHg 68%
    13:00 +16°C° 1.6 mm 2 mps 740 mmHg 73%
    14:00 +16°C° 1.7 mm 2 mps 740 mmHg 76%
    15:00 +15°C° 1.7 mm 2 mps 740 mmHg 79%
    16:00 +15°C° 1.7 mm 2 mps 741 mmHg 83%
    17:00 +15°C° 1.7 mm 1 mps 741 mmHg 85%
    18:00 +15°C° 1.7 mm 1 mps 741 mmHg 87%
    19:00 +14°C° 1.7 mm 1 mps 741 mmHg 89%
    20:00 +14°C° 1.5 mm 1 mps 741 mmHg 89%
    21:00 +14°C° 1.5 mm 1 mps 741 mmHg 90%
    22:00 +14°C° 1.5 mm 1 mps 741 mmHg 91%
    23:00 +14°C° 0.9 mm 1 mps 741 mmHg 91%

    1 October, Monday

    Time Temperature Precipitation Wind Pressure Humidity
    00:00 +14°C° 0.9 mm 1 mps 741 mmHg 91%
    01:00 +14°C° 0.9 mm 1 mps 741 mmHg 91%
    02:00 +14°C° 0.4 mm 1 mps 740 mmHg 91%
    03:00 +14°C° 0.4 mm 1 mps 740 mmHg 91%
    04:00 +14°C° 0.4 mm 1 mps 740 mmHg 91%
    05:00 +14°C° 0.2 mm 1 mps 740 mmHg 89%
    06:00 +15°C° 0.2 mm 1 mps 740 mmHg 87%
    07:00 +15°C° 0.2 mm 1 mps 739 mmHg 85%
    08:00 +18°C° 0 mm 1 mps 739 mmHg 79%
    09:00 +19°C° 0 mm 1 mps 739 mmHg 73%
    10:00 +21°C° 0 mm 1 mps 739 mmHg 66%
    11:00 +21°C° 0 mm 1 mps 739 mmHg 63%
    12:00 +21°C° 0 mm 2 mps 738 mmHg 60%
    13:00 +23°C° 0 mm 2 mps 738 mmHg 57%
    14:00 +23°C° 0.2 mm 2 mps 737 mmHg 58%
    15:00 +21°C° 0.2 mm 2 mps 737 mmHg 60%
    16:00 +21°C° 0.2 mm 2 mps 737 mmHg 62%
    17:00 +21°C° 0.4 mm 1 mps 737 mmHg 68%
    18:00 +19°C° 0.4 mm 1 mps 737 mmHg 74%
    19:00 +18°C° 0.4 mm 1 mps 737 mmHg 81%
    20:00 +18°C° 0.2 mm 1 mps 737 mmHg 82%
    21:00 +16°C° 0.2 mm 1 mps 737 mmHg 84%
    22:00 +16°C° 0.2 mm 1 mps 737 mmHg 85%
    23:00 +15°C° 0.1 mm 1 mps 736 mmHg 86%
    Show more